Weather in Churchill Falls

Canada     53°32′12″N   64°00′01″W
temp.,
°C
wind,
m/s
gust,
m/s
humid.,
%
clouds,
%
prec.,
mm/h
press.,
hPa
HPBL,
m
27 january, wed
wed2723:00−20nw239942 0.0 102550
02:00−21wnw359945 0.0 102486
05:00−21wnw359980 0.0 1024122
08:00−22wnw369878 0.1 1023126
11:00−17nw469493 0.0 1022297
14:00−16nw489297 0.1 1019459
17:00−18nw3896100 0.1 1020244
20:00−21nw359982 0.1 102088
28 january, thu
thu2823:00−23nw359862 0.0 1020101
02:00−25wnw359962 0.0 101996
05:00−26wnw339830 0.0 101967
08:00−27wnw339826 0.0 101856
11:00−22nw249567 0.0 1018229
14:00−19nw249372 0.0 1016299
17:00−24nw339683 0.0 101745
20:00−26nw239642 0.0 101834
29 january, fri
fri2923:00−27wnw23954 0.0 101927
02:00−27wnw23942 0.0 101840
05:00−27wnw359213 0.0 101977
08:00−28wnw339224 0.0 101973
11:00−22nw379167 0.0 1018260
14:00−19nw478936 0.0 1017316
17:00−21nw499283 0.0 1018290
20:00−20nw499391 0.0 1018280
30 january, sat
sat3023:00−19nw4994100 0.1 1018362
02:00−20nw51093100 0.1 1017328
05:00−21nw599798 0.3 1018301
08:00−20nw599799 0.7 1019263
11:00−16nw5895100 0.4 1019311
14:00−14nw5994100 1.1 1019371
17:00−14nw4993100 0.4 1021342
20:00−14nw4795100 0.8 1023287
31 january, sun
sun3123:00−16nw3696100 0.2 1024205
02:00−19nw3697100 0.3 1025153
05:00−21nw379798 0.1 1027149
08:00−23nw379694 0.1 1028145
11:00−19nw469152 0.0 1028260
14:00−17nw468826 0.0 1026304
17:00−21nw34930 0.0 102764
20:00−23wnw33920 0.0 102955